�������l�o���
Date,Time,MP-1(��Sv/h),MP-2(��Sv/h),MP-3(��Sv/h),MP-4(��Sv/h),MP-5(��Sv/h),MP-6(��Sv/h),MP-7(��Sv/h),MP-8(��Sv/h),����,����(m/s),���J
2021/06/04,00:00,0.636,0.943,0.594,1.151,0.825,0.374,0.652,0.609,��,10.2,��
2021/06/04,00:10,0.636,0.942,0.594,1.150,0.824,0.374,0.652,0.609,��,9.4,��
2021/06/04,00:20,0.636,0.944,0.595,1.149,0.825,0.375,0.652,0.611,��,11.1,��
2021/06/04,00:30,0.637,0.945,0.594,1.149,0.825,0.375,0.652,0.611,��,12.1,��
2021/06/04,00:40,0.637,0.945,0.594,1.149,0.823,0.376,0.652,0.610,��,12.7,��
2021/06/04,00:50,0.636,0.943,0.592,1.150,0.822,0.374,0.652,0.610,��쓌,12.2,�L
2021/06/04,01:00,0.638,0.944,0.594,1.151,0.823,0.376,0.651,0.610,��,13.0,�L
2021/06/04,01:10,0.634,0.943,0.593,1.150,0.823,0.376,0.653,0.610,��,13.0,�L
2021/06/04,01:20,0.635,0.942,0.591,1.149,0.823,0.376,0.650,0.609,��,12.1,��
2021/06/04,01:30,0.635,0.945,0.593,1.150,0.823,0.375,0.652,0.610,��쓌,11.0,�L
2021/06/04,01:40,0.638,0.942,0.593,1.149,0.822,0.374,0.652,0.609,��쓌,14.1,�L
2021/06/04,01:50,0.636,0.944,0.594,1.150,0.819,0.374,0.651,0.611,��쓌,15.2,�L
2021/06/04,02:00,0.637,0.940,0.593,1.147,0.819,0.375,0.651,0.610,��,13.5,�L
2021/06/04,02:10,0.633,0.941,0.591,1.148,0.819,0.375,0.650,0.610,��쓌,11.1,��
2021/06/04,02:20,0.635,0.940,0.592,1.148,0.817,0.375,0.651,0.610,��쓌,11.7,�L
2021/06/04,02:30,0.638,0.939,0.593,1.152,0.818,0.375,0.650,0.609,��,11.9,�L
2021/06/04,02:40,0.634,0.940,0.592,1.150,0.817,0.374,0.650,0.609,��,11.9,�L
2021/06/04,02:50,0.634,0.940,0.590,1.147,0.816,0.373,0.651,0.608,��,13.3,�L
2021/06/04,03:00,0.634,0.938,0.590,1.149,0.817,0.374,0.649,0.609,��쓌,15.3,�L
2021/06/04,03:10,0.633,0.939,0.589,1.149,0.814,0.375,0.650,0.606,��,13.0,�L
2021/06/04,03:20,0.633,0.941,0.591,1.147,0.815,0.376,0.649,0.606,��,11.3,�L
2021/06/04,03:30,0.635,0.938,0.590,1.149,0.814,0.377,0.649,0.606,��,10.5,�L
2021/06/04,03:40,0.633,0.939,0.591,1.149,0.815,0.374,0.652,0.608,��쓌,15.2,�L
2021/06/04,03:50,0.632,0.935,0.591,1.147,0.813,0.374,0.649,0.606,��쓌,14.6,�L
2021/06/04,04:00,0.631,0.935,0.591,1.148,0.814,0.374,0.648,0.609,��,13.3,�L
2021/06/04,04:10,0.630,0.933,0.588,1.147,0.813,0.375,0.649,0.606,��쓌,13.0,�L
2021/06/04,04:20,0.629,0.932,0.587,1.149,0.815,0.375,0.649,0.604,��,11.6,�L
2021/06/04,04:30,0.632,0.936,0.587,1.149,0.815,0.374,0.649,0.605,��,13.3,�L
2021/06/04,04:40,0.632,0.934,0.589,1.146,0.814,0.376,0.647,0.606,��쓌,15.2,�L
2021/06/04,04:50,0.631,0.935,0.589,1.145,0.815,0.374,0.648,0.606,��,13.8,�L
2021/06/04,05:00,0.629,0.934,0.587,1.146,0.815,0.375,0.648,0.607,��쓌,16.3,�L
2021/06/04,05:10,0.631,0.931,0.588,1.147,0.814,0.375,0.649,0.607,��쓌,15.2,�L
2021/06/04,05:20,0.630,0.935,0.588,1.146,0.813,0.375,0.650,0.608,��쓌,15.0,�L
2021/06/04,05:30,0.629,0.933,0.590,1.147,0.813,0.374,0.648,0.606,��쓌,14.1,�L
2021/06/04,05:40,0.630,0.935,0.588,1.148,0.812,0.374,0.649,0.607,��쓌,16.6,�L
2021/06/04,05:50,0.630,0.933,0.591,1.146,0.811,0.375,0.648,0.608,��,14.4,�L
2021/06/04,06:00,0.629,0.932,0.588,1.147,0.814,0.375,0.647,0.605,��쓌,15.3,�L
2021/06/04,06:10,0.631,0.930,0.588,1.147,0.811,0.375,0.648,0.607,��쓌,15.2,�L
2021/06/04,06:20,0.630,0.931,0.589,1.147,0.812,0.376,0.648,0.607,��쓌,14.4,�L
2021/06/04,06:30,0.630,0.932,0.588,1.146,0.813,0.376,0.649,0.610,��,14.6,�L
2021/06/04,06:40,0.630,0.931,0.589,1.145,0.813,0.376,0.648,0.606,��쓌,14.4,�L
2021/06/04,06:50,0.628,0.930,0.588,1.146,0.813,0.375,0.649,0.605,��쓌,16.1,�L
2021/06/04,07:00,0.631,0.929,0.587,1.146,0.811,0.375,0.648,0.608,��,14.1,��
2021/06/04,07:10,0.631,0.931,0.588,1.147,0.813,0.376,0.649,0.607,��,17.6,�L
2021/06/04,07:20,0.631,0.930,0.588,1.145,0.812,0.376,0.650,0.609,��,15.8,�L
2021/06/04,07:30,0.629,0.931,0.589,1.146,0.814,0.375,0.651,0.608,��,14.1,�L
2021/06/04,07:40,0.630,0.930,0.588,1.146,0.811,0.376,0.649,0.606,��,15.5,�L
2021/06/04,07:50,0.632,0.931,0.590,1.148,0.812,0.376,0.648,0.605,��,13.5,�L
2021/06/04,08:00,0.629,0.931,0.590,1.148,0.812,0.378,0.649,0.606,��,16.6,�L
2021/06/04,08:10,0.633,0.930,0.592,1.146,0.816,0.377,0.649,0.606,��,15.2,�L
2021/06/04,08:20,0.631,0.931,0.591,1.147,0.813,0.377,0.651,0.604,��,16.4,�L
2021/06/04,08:30,0.632,0.929,0.590,1.149,0.815,0.377,0.649,0.605,��쓌,17.2,�L
2021/06/04,08:40,0.631,0.930,0.592,1.147,0.814,0.378,0.648,0.607,��,16.4,�L
2021/06/04,08:50,0.632,0.931,0.594,1.151,0.814,0.379,0.650,0.605,��,15.3,�L
2021/06/04,09:00,0.632,0.930,0.593,1.147,0.814,0.380,0.649,0.605,��쓌,16.6,�L
2021/06/04,09:10,0.633,0.927,0.590,1.145,0.814,0.379,0.649,0.606,��,15.3,�L
2021/06/04,09:20,0.631,0.926,0.592,1.147,0.811,0.380,0.648,0.605,��,15.5,�L
2021/06/04,09:30,0.630,0.922,0.588,1.142,0.807,0.378,0.648,0.604,��쓌,17.2,�L
2021/06/04,09:40,0.628,0.917,0.589,1.140,0.806,0.378,0.646,0.605,��,11.9,�L
2021/06/04,09:50,0.628,0.921,0.589,1.140,0.804,0.379,0.646,0.604,��,16.1,�L
2021/06/04,10:00,0.627,0.919,0.589,1.140,0.804,0.380,0.647,0.603,��쓌,16.0,�L
2021/06/04,10:10,0.627,0.919,0.590,1.139,0.802,0.378,0.648,0.602,��,16.9,�L
2021/06/04,10:20,0.626,0.917,0.587,1.140,0.800,0.377,0.647,0.604,��쓌,13.3,�L
2021/06/04,10:30,0.625,0.917,0.586,1.136,0.800,0.376,0.646,0.603,��쓌,14.7,�L
2021/06/04,10:40,0.625,0.915,0.586,1.136,0.799,0.375,0.648,0.602,��쓌,15.0,�L
2021/06/04,10:50,0.626,0.912,0.586,1.134,0.800,0.375,0.645,0.602,��,17.7,�L
2021/06/04,11:00,0.621,0.913,0.584,1.136,0.799,0.375,0.645,0.602,��,15.2,�L
2021/06/04,11:10,0.621,0.910,0.582,1.133,0.797,0.376,0.645,0.600,��,14.4,�L
2021/06/04,11:20,0.621,0.911,0.581,1.132,0.796,0.376,0.644,0.601,��,14.7,�L
2021/06/04,11:30,0.620,0.908,0.582,1.132,0.793,0.375,0.644,0.599,��쓌,15.5,�L
2021/06/04,11:40,0.621,0.908,0.583,1.129,0.794,0.375,0.644,0.600,��,16.6,�L
2021/06/04,11:50,0.620,0.907,0.581,1.129,0.792,0.375,0.643,0.600,��쓌,14.9,�L
2021/06/04,12:00,0.619,0.907,0.582,1.124,0.790,0.374,0.643,0.599,��,14.4,�L
2021/06/04,12:10,0.618,0.906,0.579,1.125,0.789,0.375,0.642,0.600,��,14.6,�L
2021/06/04,12:20,0.619,0.904,0.581,1.123,0.788,0.376,0.641,0.598,��,14.7,�L
2021/06/04,12:30,0.617,0.900,0.580,1.120,0.787,0.374,0.640,0.599,��쓌,16.0,�L
2021/06/04,12:40,0.614,0.901,0.581,1.115,0.783,0.373,0.639,0.597,��쓌,17.9,�L
2021/06/04,12:50,0.615,0.900,0.578,1.114,0.785,0.374,0.639,0.598,��,15.8,�L
2021/06/04,13:00,0.614,0.898,0.580,1.111,0.781,0.373,0.639,0.596,��,14.4,�L
2021/06/04,13:10,0.613,0.899,0.578,1.110,0.782,0.373,0.638,0.596,��,16.4,�L
2021/06/04,13:20,0.613,0.894,0.578,1.109,0.781,0.373,0.637,0.596,��,17.7,�L
2021/06/04,13:30,0.612,0.890,0.579,1.104,0.780,0.375,0.637,0.595,��,12.5,�L
2021/06/04,13:40,0.611,0.891,0.578,1.099,0.777,0.372,0.636,0.594,��,15.3,�L
2021/06/04,13:50,0.611,0.888,0.578,1.097,0.777,0.372,0.636,0.594,��쓌,15.5,�L
2021/06/04,14:00,0.611,0.889,0.575,1.094,0.775,0.372,0.634,0.595,��,15.7,�L
2021/06/04,14:10,0.610,0.887,0.577,1.094,0.774,0.372,0.636,0.593,��,11.6,�L
2021/06/04,14:20,0.609,0.885,0.575,1.089,0.773,0.371,0.634,0.592,��,14.1,�L
2021/06/04,14:30,0.607,0.883,0.572,1.089,0.769,0.370,0.635,0.593,��,12.0,�L
2021/06/04,14:40,0.605,0.883,0.573,1.086,0.768,0.370,0.633,0.591,��,12.7,�L
2021/06/04,14:50,0.604,0.884,0.571,1.084,0.768,0.369,0.632,0.592,��,15.2,�L
2021/06/04,15:00,0.603,0.880,0.568,1.081,0.765,0.369,0.632,0.591,��,12.5,�L
2021/06/04,15:10,0.602,0.878,0.567,1.083,0.764,0.371,0.631,0.592,��쓌,12.4,�L
2021/06/04,15:20,0.601,0.879,0.566,1.083,0.765,0.368,0.631,0.590,��,14.2,�L
2021/06/04,15:30,0.601,0.878,0.568,1.080,0.761,0.369,0.630,0.590,��,12.5,�L
2021/06/04,15:40,0.601,0.877,0.566,1.079,0.760,0.367,0.630,0.590,��,13.5,�L
2021/06/04,15:50,0.599,0.875,0.565,1.079,0.757,0.366,0.630,0.589,��,14.7,�L
2021/06/04,16:00,0.597,0.872,0.565,1.073,0.758,0.367,0.628,0.591,��,11.6,�L
2021/06/04,16:10,0.599,0.871,0.563,1.074,0.758,0.366,0.627,0.589,��,12.4,�L
2021/06/04,16:20,0.598,0.873,0.564,1.072,0.758,0.366,0.629,0.590,��,14.2,�L
2021/06/04,16:30,0.598,0.872,0.563,1.072,0.755,0.367,0.627,0.589,��,13.8,�L
2021/06/04,16:40,0.598,0.873,0.563,1.074,0.755,0.365,0.629,0.588,��,12.7,�L
2021/06/04,16:50,0.598,0.872,0.562,1.071,0.756,0.365,0.629,0.590,��,11.3,�L
2021/06/04,17:00,0.600,0.873,0.566,1.072,0.757,0.365,0.629,0.589,��,9.3,�L
2021/06/04,17:10,0.599,0.872,0.562,1.072,0.756,0.368,0.627,0.588,��쐼,7.9,�L
2021/06/04,17:20,0.599,0.873,0.564,1.071,0.756,0.367,0.629,0.590,�쐼,5.6,�L
2021/06/04,17:30,0.590,0.857,0.556,1.058,0.744,0.365,0.626,0.587,��쐼,4.0,�L
2021/06/04,17:40,0.587,0.857,0.558,1.049,0.738,0.363,0.622,0.584,��쐼,5.4,�L
2021/06/04,17:50,0.594,0.864,0.560,1.055,0.744,0.366,0.624,0.587,��쐼,6.6,�L
2021/06/04,18:00,0.597,0.867,0.561,1.059,0.749,0.367,0.624,0.588,��쐼,6.3,�L
2021/06/04,18:10,0.600,0.870,0.564,1.064,0.751,0.367,0.626,0.589,�쐼,4.6,�L
2021/06/04,18:20,0.601,0.868,0.563,1.065,0.751,0.367,0.626,0.589,���쐼,4.9,�L
2021/06/04,18:30,0.599,0.873,0.562,1.063,0.751,0.366,0.626,0.591,��,3.9,�L
2021/06/04,18:40,0.601,0.871,0.564,1.067,0.751,0.366,0.628,0.590,���k��,4.7,�L
2021/06/04,18:50,0.600,0.873,0.563,1.068,0.752,0.369,0.628,0.587,�k��,4.9,�L
2021/06/04,19:00,0.602,0.873,0.564,1.071,0.757,0.367,0.628,0.588,�k��,4.9,�L
2021/06/04,19:10,0.600,0.871,0.564,1.070,0.754,0.367,0.627,0.588,�k��,5.8,��
2021/06/04,19:20,0.601,0.875,0.564,1.069,0.755,0.368,0.627,0.590,�k��,6.8,��
2021/06/04,19:30,0.601,0.876,0.565,1.071,0.755,0.364,0.628,0.591,�k��,6.7,��
2021/06/04,19:40,0.601,0.875,0.565,1.073,0.754,0.367,0.628,0.589,�k��,6.1,��
2021/06/04,19:50,0.599,0.877,0.565,1.071,0.756,0.365,0.628,0.592,�k�k��,4.3,��
2021/06/04,20:00,0.600,0.874,0.565,1.070,0.755,0.365,0.628,0.591,�k�k��,5.1,��
2021/06/04,20:10,0.601,0.877,0.565,1.074,0.754,0.365,0.627,0.591,�k�k��,5.7,��
2021/06/04,20:20,0.601,0.877,0.564,1.074,0.756,0.365,0.627,0.591,�k�k��,5.6,�L
2021/06/04,20:30,0.601,0.875,0.564,1.075,0.758,0.363,0.629,0.590,�k�k��,5.3,��
2021/06/04,20:40,0.601,0.873,0.564,1.076,0.757,0.363,0.628,0.591,�k�k��,4.2,��
2021/06/04,20:50,0.601,0.876,0.563,1.075,0.757,0.364,0.630,0.591,�k�k��,4.2,��
2021/06/04,21:00,0.602,0.876,0.565,1.074,0.758,0.365,0.629,0.590,�k��,3.8,��
2021/06/04,21:10,0.601,0.877,0.566,1.072,0.758,0.362,0.628,0.591,�k�k��,4.2,��
2021/06/04,21:20,0.601,0.878,0.566,1.075,0.759,0.364,0.628,0.591,�k�k��,4.3,�L
2021/06/04,21:30,0.602,0.876,0.564,1.076,0.759,0.366,0.630,0.592,�k�k��,3.6,��
2021/06/04,21:40,0.602,0.879,0.566,1.077,0.761,0.365,0.632,0.591,�k�k��,4.9,��
2021/06/04,21:50,0.602,0.878,0.567,1.076,0.763,0.366,0.629,0.592,�k��,5.1,��
2021/06/04,22:00,0.604,0.879,0.566,1.076,0.761,0.365,0.630,0.590,�k��,4.5,��
2021/06/04,22:10,0.604,0.881,0.567,1.077,0.763,0.365,0.629,0.592,�k��,4.2,�L
2021/06/04,22:20,0.601,0.880,0.567,1.079,0.762,0.365,0.630,0.592,�k��,3.3,�L
2021/06/04,22:30,0.602,0.881,0.567,1.076,0.762,0.365,0.630,0.592,�k��,0.9,�L
2021/06/04,22:40,0.604,0.881,0.567,1.081,0.762,0.365,0.630,0.593,�k�k��,1.2,��
2021/06/04,22:50,0.604,0.881,0.570,1.078,0.763,0.366,0.631,0.593,�k�k��,1.1,��
2021/06/04,23:00,0.603,0.881,0.568,1.080,0.763,0.365,0.629,0.590,�k��,1.4,��
2021/06/04,23:10,0.603,0.881,0.566,1.078,0.764,0.365,0.630,0.592,�k��,1.5,�L
2021/06/04,23:20,0.605,0.883,0.568,1.081,0.764,0.368,0.630,0.593,�k��,0.8,�L
2021/06/04,23:30,0.607,0.887,0.571,1.082,0.764,0.370,0.632,0.595,�k��,1.2,�L
2021/06/04,23:40,0.609,0.888,0.570,1.081,0.769,0.371,0.632,0.594,�k�k��,1.2,�L
2021/06/04,23:50,0.608,0.887,0.574,1.085,0.769,0.370,0.633,0.594,�k�k��,2.0,�L
